Presure
189 198 183 184 190 181 183 179 188 182 147 130 138 153 137 110 152 145 99 161 143 129 140 142 130 153 137
153 201 162 163 167 171 193 191 156 191 179 162 139 139 151 121 139 152 131 128 124 124 143 146 127 152 143
229 142 180 172 172 208 199 194 181 182 178 159 139 146 144 149 142 140 150 130 136 147 133 153 147 152 123
231 295 244 189 189 192 209 207 192 183 186 174 181 160 149 139 143 158 143 144 134 130 140 148 139 146 150
223 214 281 249 210 180 187 212 199 184 174 175 170 180 154 158 146 137 123 129 134 125 139 126 124 141 154
213 219 210 168 249 134 195 218 204 203 179 176 163 184 162 167 156 154 163 142 126 139 132 142 146 147 133
211 199 215 218 188 275 150 149 195 198 203 206 179 176 171 146 157 165 163 133 142 145 126 143 128 135 134
188 218 207 202 234 227 260 135 207 164 170 185 200 189 190 183 175 175 148 165 142 130 138 145 146 139 153
289 228 242 222 202 227 215 231 217 240 160 150 189 186 177 173 185 178 172 133 111 123 140 145 143 126 132
241 245 246 267 221 225 233 191 248 258 176 168 156 212 191 211 219 168 182 131 153 147 143 149 136 138 154
318 244 245 286 255 286 222 235 243 273 256 238 228 205 214 212 213 187 156 159 156 128 119 146 151 148 158
387 384 213 405 265 297 260 223 228 243 254 285 228 224 223 207 212 185 185 170 160 137 162 123 127 127 155
362 252 392 410 432 352 285 284 273 230 225 324 240 226 225 220 222 204 201 180 168 164 151 162 164 154 154
144 437 276 436 405 427 269 264 293 268 220 229 204 262 252 237 222 213 211 194 187 170 162 161 166 164 152
285 370 398 446 433 263 418 281 293 305 245 211 229 206 210 225 220 216 208 198 204 189 181 174 170 155 151
425 440 427 417 415 401 426 264 276 280 316 245 206 204 221 237 229 216 212 204 196 197 192 137 160 165 161
428 415 407 390 406 403 422 141 163 272 423 323 275 221 201 240 236 218 204 204 202 195 199 188 175 161 163
Wind_Speed
105 107 111 116 113 112 118 111 106 101 84 80 80 82 77 65 78 73 61 73 69 67 67 71 59 71 71
88 105 96 99 101 102 124 120 90 112 105 94 78 79 82 75 72 78 64 68 63 61 70 74 56 71 74
100 81 111 108 107 114 122 120 117 117 112 92 79 82 80 79 77 75 77 67 64 72 62 76 71 70 59
77 91 116 115 112 111 114 123 123 120 118 111 111 92 87 78 79 87 76 70 62 63 71 69 61 67 74
88 93 95 122 116 113 115 121 130 115 111 116 113 117 89 97 79 72 68 68 66 71 67 58 56 71 73
101 102 106 97 127 77 120 126 129 126 115 113 105 119 96 100 94 90 94 75 71 72 62 73 74 78 65
110 111 114 112 105 125 82 76 124 125 126 123 121 121 122 83 91 99 97 67 82 78 67 77 55 58 66
118 109 119 120 117 117 119 72 130 96 92 122 129 128 121 121 118 117 76 90 80 68 71 84 77 66 83
94 113 109 126 123 124 116 122 119 138 80 69 128 123 118 115 118 123 109 77 59 74 74 84 70 55 68
110 111 115 116 134 131 130 107 120 131 98 91 77 130 129 124 113 89 117 79 89 91 85 86 79 68 80
111 116 122 115 119 129 122 126 124 125 134 130 131 119 134 127 118 110 91 101 102 76 59 86 91 89 83
99 104 95 100 125 131 123 118 113 118 118 136 122 124 134 128 124 108 113 108 103 77 106 53 65 63 81
90 66 97 90 84 104 129 124 121 114 108 128 119 120 131 135 126 115 118 110 105 105 90 101 95 88 79
61 77 65 76 80 76 117 114 114 105 108 107 106 131 134 141 123 113 114 111 108 108 98 93 93 92 75
71 70 68 60 65 106 76 116 112 114 115 99 105 104 105 120 122 111 110 107 108 105 100 100 91 80 74
72 61 60 61 65 72 72 97 88 100 111 120 99 99 107 125 123 113 109 107 103 103 96 71 80 86 85
63 64 66 66 66 66 69 70 66 95 77 114 121 105 99 121 127 112 102 109 109 103 97 94 88 78 83
Wind_Direction
247 243 247 250 256 256 253 255 250 247 251 255 260 259 265 278 270 274 286 280 285 291 295 298 307 302 309
253 243 253 254 254 252 252 252 254 251 248 251 254 259 260 269 271 271 276 279 284 289 291 293 301 298 303
242 260 246 250 251 248 251 250 251 252 251 249 252 255 257 261 265 270 271 276 280 284 287 290 296 298 301
250 245 240 246 247 246 245 247 249 250 250 256 253 250 255 257 261 264 269 272 276 276 285 288 293 298 297
248 242 244 240 245 247 247 244 246 251 250 251 256 258 251 256 258 262 265 268 270 274 282 282 288 297 296
251 248 241 254 240 251 244 241 244 249 251 251 255 253 258 254 258 259 260 264 266 273 276 284 289 290 295
252 252 250 244 250 238 250 254 246 245 248 248 252 251 255 247 258 256 257 260 267 271 269 280 277 290 292
254 255 250 251 246 241 240 246 241 247 249 247 249 249 250 253 257 260 254 255 263 263 273 277 279 286 288
254 250 249 243 250 246 243 241 243 237 245 253 248 250 254 252 252 254 257 249 279 264 270 277 274 276 284
253 249 248 244 247 247 245 247 237 233 247 248 252 248 249 247 242 243 253 254 258 264 268 266 276 277 285
275 251 250 253 246 239 247 246 243 234 232 236 238 245 246 245 242 245 244 253 258 255 277 268 270 277 279
265 264 253 265 246 237 243 246 247 241 235 231 235 236 241 246 244 246 248 250 253 253 264 275 265 267 275
264 255 265 265 258 246 239 238 238 242 239 228 231 235 236 242 243 244 245 247 251 254 258 262 263 266 268
224 275 245 256 251 253 240 243 238 237 238 235 238 227 231 236 241 241 244 245 247 249 254 256 261 262 263
264 263 257 247 246 241 249 238 235 230 232 231 231 237 234 231 237 237 240 243 246 247 250 252 255 257 259
269 259 249 244 245 245 245 237 233 228 222 229 229 231 232 230 231 236 237 239 244 247 246 259 254 252 257
256 248 245 245 245 245 246 240 227 226 223 216 221 226 233 227 229 232 235 237 240 243 245 246 250 254 254